| time (UTC) | temp C | wind direction | speed KPH | gust KPH | rain 1hr cm | rain 24hr cm | rain mn cm | humidity % | barometer mb |
| 20260506004556 | 15 | 288 | 12.9 | 20.9 | 0.00 | 0.81 | 0.81 | 59 | 1014.0 |
| 20260506003046 | 15 | 243 | 9.7 | 20.9 | 0.00 | 0.81 | 0.81 | 60 | 1014.0 |
| 20260506001538 | 15 | 317 | 9.7 | 19.3 | 0.00 | 0.81 | 0.81 | 60 | 1014.0 |
| 20260506000033 | 15 | 305 | 11.3 | 20.9 | 0.00 | 0.81 | 0.81 | 61 | 1014.0 |
| 20260505234556 | 14 | 319 | 11.3 | 17.7 | 0.00 | 0.81 | 0.81 | 62 | 1014.0 |
| 20260505233038 | 15 | 286 | 11.3 | 19.3 | 0.00 | 0.81 | 0.81 | 64 | 1014.0 |
| 20260505231537 | 15 | 281 | 9.7 | 20.9 | 0.00 | 0.81 | 0.81 | 67 | 1013.9 |
| 20260505230042 | 14 | 302 | 6.4 | 17.7 | 0.00 | 0.81 | 0.81 | 68 | 1014.0 |
| 20260505224540 | 15 | 271 | 6.4 | 19.3 | 0.00 | 0.81 | 0.81 | 63 | 1014.0 |
| 20260505223038 | 15 | 312 | 9.7 | 19.3 | 0.00 | 0.81 | 0.81 | 62 | 1014.0 |
| 20260505221538 | 15 | 333 | 9.7 | 17.7 | 0.00 | 0.81 | 0.81 | 62 | 1014.0 |
| 20260505220054 | 15 | 302 | 9.7 | 22.5 | 0.00 | 0.81 | 0.81 | 61 | 1014.1 |
| 20260505214539 | 16 | 270 | 8.0 | 17.7 | 0.00 | 0.81 | 0.81 | 61 | 1014.1 |
| 20260505213039 | 16 | 291 | 9.7 | 17.7 | 0.00 | 0.81 | 0.81 | 55 | 1014.3 |
| 20260505211542 | 16 | 315 | 8.0 | 14.5 | 0.00 | 0.81 | 0.81 | 59 | 1014.3 |
| 20260505210037 | 15 | 233 | 6.4 | 19.3 | 0.00 | 0.81 | 0.81 | 58 | 1014.4 |
| 20260505204537 | 15 | 287 | 3.2 | 14.5 | 0.00 | 0.81 | 0.81 | 61 | 1014.4 |
| 20260505203037 | 15 | 302 | 1.6 | 14.5 | 0.00 | 0.81 | 0.81 | 61 | 1014.6 |
| 20260505201536 | 15 | 311 | 4.8 | 16.1 | 0.00 | 0.81 | 0.81 | 60 | 1014.7 |
| 20260505200035 | 15 | 271 | 4.8 | 12.9 | 0.00 | 0.81 | 0.81 | 60 | 1014.8 |
| 20260505194537 | 14 | 8 | 1.6 | 11.3 | 0.00 | 0.81 | 0.81 | 62 | 1014.9 |
| 20260505193044 | 15 | 319 | 3.2 | 14.5 | 0.00 | 0.81 | 0.81 | 62 | 1015.0 |
| 20260505191550 | 13 | 270 | 6.4 | 14.5 | 0.00 | 0.81 | 0.81 | 72 | 1015.2 |
| 20260505190035 | 13 | 248 | 4.8 | 11.3 | 0.00 | 0.81 | 0.81 | 71 | 1015.1 |
| 20260505184535 | 13 | 292 | 3.2 | 8.0 | 0.00 | 0.81 | 0.81 | 74 | 1015.0 |
| 20260505183038 | 12 | 285 | 1.6 | 9.7 | 0.00 | 0.81 | 0.81 | 75 | 1015.1 |
| 20260505181537 | 12 | 34 | 0.0 | 8.0 | 0.00 | 0.81 | 0.81 | 77 | 1015.0 |
| 20260505180048 | 12 | 284 | 6.4 | 11.3 | 0.00 | 0.81 | 0.81 | 76 | 1015.1 |
| 20260505174542 | 12 | 242 | 1.6 | 6.4 | 0.00 | 0.81 | 0.81 | 83 | 1014.8 |
| 20260505173039 | 11 | 0 | 3.2 | 8.0 | 0.00 | 0.81 | 0.81 | 86 | 1014.7 |
| 20260505171537 | 11 | 330 | 1.6 | 6.4 | 0.00 | 0.81 | 0.81 | 87 | 1014.6 |
| 20260505170044 | 10 | 0 | 0.0 | 1.6 | 0.00 | 0.81 | 0.81 | 89 | 1014.4 |
| 20260505164533 | 10 | 250 | 1.6 | 9.7 | 0.00 | 0.81 | 0.81 | 91 | 1014.6 |
| 20260505163038 | 10 | 316 | 4.8 | 9.7 | 0.00 | 0.81 | 0.81 | 89 | 1014.2 |
| 20260505161534 | 10 | 326 | 1.6 | 8.0 | 0.00 | 0.81 | 0.81 | 89 | 1014.1 |
| 20260505153046 | 10 | 294 | 1.6 | 8.0 | 0.00 | 0.81 | 0.81 | 91 | 1013.7 |
| 20260505151542 | 10 | 294 | 1.6 | 8.0 | 0.00 | 0.81 | 0.81 | 92 | 1013.7 |
| 20260505124544 | 9 | 0 | 0.0 | 4.8 | 0.28 | 0.43 | 0.43 | 94 | 1012.9 |
| 20260505123101 | 9 | 0 | 0.0 | 3.2 | 0.00 | 0.15 | 0.15 | 93 | 1012.9 |
| 20260505121539 | 9 | 149 | 3.2 | 8.0 | 0.00 | 0.15 | 0.15 | 93 | 1012.9 |
| 20260505120040 | 9 | 190 | 0.0 | 3.2 | 0.00 | 0.15 | 0.15 | 94 | 1013.0 |
| 20260505114551 | 9 | 143 | 0.0 | 3.2 | 0.00 | 0.15 | 0.15 | 94 | 1013.0 |
| 20260505113039 | 9 | 147 | 1.6 | 3.2 | 0.03 | 0.15 | 0.15 | 93 | 1013.0 |
| 20260505111552 | 10 | 0 | 1.6 | 8.0 | 0.03 | 0.15 | 0.15 | 93 | 1013.0 |
| 20260505101536 | 10 | 290 | 0.0 | 1.6 | 0.00 | 0.13 | 0.13 | 91 | 1013.1 |
| 20260505100036 | 10 | 0 | 0.0 | 0.0 | 0.00 | 0.13 | 0.13 | 91 | 1013.2 |
| 20260505094542 | 10 | 0 | 0.0 | 0.0 | 0.00 | 0.13 | 0.13 | 91 | 1013.2 |
| 20260505093038 | 10 | 0 | 0.0 | 0.0 | 0.03 | 0.13 | 0.13 | 91 | 1013.2 |
| 20260505091537 | 10 | 0 | 0.0 | 0.0 | 0.03 | 0.13 | 0.13 | 91 | 1013.5 |
| 20260505090039 | 10 | 0 | 0.0 | 1.6 | 0.03 | 0.13 | 0.13 | 91 | 1013.7 |
| 20260505084535 | 10 | 0 | 0.0 | 1.6 | 0.03 | 0.13 | 0.13 | 91 | 1013.8 |
| 20260505083044 | 10 | 0 | 0.0 | 1.6 | 0.08 | 0.10 | 0.10 | 92 | 1014.0 |
| 20260505081546 | 10 | 0 | 0.0 | 0.0 | 0.10 | 0.10 | 0.10 | 92 | 1014.3 |
| 20260505080041 | 10 | 295 | 0.0 | 1.6 | 0.10 | 0.10 | 0.10 | 92 | 1014.4 |
| 20260505074541 | 10 | 0 | 0.0 | 0.0 | 0.10 | 0.10 | 0.10 | 90 | 1014.3 |
| 20260505073034 | 10 | 0 | 0.0 | 1.6 | 0.03 | 0.03 | 0.03 | 89 | 1014.6 |
| 20260505071539 | 10 | 302 | 1.6 | 9.7 | 0.00 | 0.00 | 0.00 | 86 | 1014.7 |
| 20260505070044 | 10 | 292 | 3.2 | 8.0 | 0.00 | 0.00 | 0.00 | 83 | 1014.6 |
| 20260505064552 | 10 | 300 | 1.6 | 8.0 | 0.00 | 0.00 | 0.00 | 82 | 1014.7 |
| 20260505063041 | 10 | 304 | 3.2 | 11.3 | 0.00 | 0.00 | 0.00 | 82 | 1014.6 |
| 20260505061541 | 11 | 311 | 3.2 | 6.4 | 0.00 | 0.00 | 0.00 | 82 | 1014.7 |
| 20260505060033 | 11 | 311 | 1.6 | 9.7 | 0.00 | 0.00 | 0.00 | 81 | 1014.7 |
| 20260505054535 | 11 | 310 | 4.8 | 9.7 | 0.00 | 0.00 | 0.00 | 82 | 1014.9 |
| 20260505053034 | 11 | 315 | 3.2 | 12.9 | 0.00 | 0.00 | 0.00 | 83 | 1014.8 |
| 20260505051535 | 11 | 230 | 4.8 | 12.9 | 0.00 | 0.00 | 0.00 | 82 | 1015.0 |
| 20260505041541 | 11 | 310 | 12.9 | 19.3 | 0.00 | 0.00 | 0.00 | 76 | 1014.3 |
| 20260505040039 | 11 | 307 | 12.9 | 20.9 | 0.00 | 0.00 | 0.00 | 75 | 1014.2 |
| 20260505034539 | 11 | 293 | 9.7 | 19.3 | 0.00 | 0.00 | 0.00 | 74 | 1014.2 |
| 20260505033036 | 12 | 285 | 9.7 | 20.9 | 0.00 | 0.00 | 0.00 | 75 | 1014.1 |
| 20260505031535 | 12 | 301 | 11.3 | 20.9 | 0.00 | 0.00 | 0.00 | 75 | 1014.3 |
| 20260505030039 | 12 | 325 | 6.4 | 17.7 | 0.00 | 0.00 | 0.00 | 71 | 1014.2 |
| 20260505024543 | 12 | 263 | 8.0 | 14.5 | 0.00 | 0.00 | 0.00 | 70 | 1014.3 |
| 20260505023044 | 12 | 271 | 9.7 | 17.7 | 0.00 | 0.00 | 0.00 | 71 | 1014.2 |
| 20260505021543 | 13 | 233 | 6.4 | 16.1 | 0.00 | 0.00 | 0.00 | 69 | 1014.5 |
| 20260505020035 | 13 | 288 | 6.4 | 14.5 | 0.00 | 0.00 | 0.00 | 67 | 1014.3 |
| 20260505014543 | 13 | 284 | 8.0 | 14.5 | 0.00 | 0.00 | 0.00 | 67 | 1014.5 |
| 20260505013035 | 13 | 312 | 3.2 | 11.3 | 0.00 | 0.00 | 0.00 | 67 | 1014.6 |
| 20260505011535 | 13 | 262 | 8.0 | 16.1 | 0.00 | 0.00 | 0.00 | 67 | 1014.6 |
| 20260505010041 | 14 | 296 | 4.8 | 17.7 | 0.00 | 0.00 | 0.00 | 66 | 1014.5 |